Flag for Brunei Weather past 2 weeks in Bandar Seri Begawan, Brunei

Now
86 °F

Partly sunny.


Feels Like: 99 °F
Forecast: 80 / 90 °F
Wind: 7 mph from Northwest

Location: Brunei Airport

Current Time: May 7, 2015 at 5:46:31 PM

Latest Report: May 7, 2015 at 5:00 PM


Visibility: N/A

Pressure: 29.77 "Hg

Humidity: 79%

Dew point: 79 °F

Location of Bandar Seri BegawanLocation

Historic Weather in Bandar Seri Begawan — Graph

°F

Bandar Seri Begawan temperature yesterday

Maximum temperature yesterday: 91 °F (at 10:30 AM)
Minimum temperature yesterday: 77 °F (at 6:00 AM)
Average temperature yesterday: 84 °F

Past Weeks' High & Low Weather Summary

 TemperatureHumidityPressure
High91 °F (Apr 28, 11:30 AM)100% (Apr 23, 3:30 AM)29.95 "Hg (Apr 23, 3:30 AM)
Low77 °F (Apr 23, 6:30 AM)49% (May 5, 12:00 PM)29.74 "Hg (Apr 22, 4:00 PM)
Average83 °F82%29.83 "Hg
* Reported Apr 22 4:00 PM — May 7 4:30 PM, Bandar Seri Begawan, Weather by CustomWeather, © 2015

Note: Actual official high and low records may vary slightly from our data, if they occured in-between our weather recording intervals... More about our weather records

Advertising

Bandar Seri Begawan weather history for previous 24 hours

 ConditionsComfort  
Time TempWeatherWind HumidityBarometerVisibility
4:30 PM
Thu, May 7
86 °FPartly sunny.9 mph79%29.77 "HgN/A
4:00 PM88 °FPartly sunny.9 mph70%29.77 "HgN/A
3:30 PM88 °FBroken clouds.10 mph70%29.77 "HgN/A
3:00 PM90 °FThunderstorms. Broken clouds.12 mph67%29.77 "HgN/A
2:30 PM90 °FThunderstorms. Partly sunny.10 mph63%29.77 "HgN/A
2:00 PM88 °FThunderstorms. Partly sunny.10 mph70%29.80 "HgN/A
1:30 PM86 °FThunderstorms. Broken clouds.7 mph70%29.83 "HgN/A
1:00 PM84 °FThunderstorms. Broken clouds.12 mph70%29.83 "Hg6 mi
12:30 PM90 °FThunderstorms. Broken clouds.9 mph63%29.83 "Hg6 mi
12:00 PM90 °FBroken clouds.9 mph67%29.83 "HgN/A
11:30 AM88 °FBroken clouds.8 mph70%29.86 "HgN/A
11:00 AM88 °FBroken clouds.8 mph70%29.86 "HgN/A
10:30 AM88 °FBroken clouds.8 mph70%29.86 "HgN/A
10:00 AM90 °FPartly sunny.3 mph63%29.86 "HgN/A
9:30 AM88 °FPartly sunny.2 mph70%29.86 "HgN/A
9:00 AM86 °FPartly sunny.3 mph75%29.86 "HgN/A
8:30 AM86 °FPartly sunny.2 mph79%29.86 "HgN/A
8:00 AM82 °FPartly sunny.2 mph84%29.86 "HgN/A
7:30 AM81 °FPartly sunny.3 mph89%29.83 "HgN/A
7:00 AM79 °FPartly sunny.3 mph94%29.83 "HgN/A
6:30 AM79 °FPartly sunny.3 mph94%29.83 "HgN/A
6:00 AM79 °FPassing clouds.3 mph94%29.83 "HgN/A
5:00 AM79 °FPassing clouds.2 mph94%29.80 "HgN/A
4:30 AM79 °FPassing clouds.3 mph94%29.80 "HgN/A
4:00 AM79 °FPassing clouds.3 mph94%29.80 "HgN/A
3:30 AM81 °FPartly cloudy.5 mph89%29.80 "HgN/A
3:00 AM81 °FPassing clouds.3 mph89%29.80 "HgN/A
2:30 AM81 °FPassing clouds.2 mph89%29.80 "HgN/A
2:00 AM81 °FPassing clouds.2 mph94%29.80 "HgN/A
1:30 AM81 °FPassing clouds.3 mph94%29.80 "HgN/A
1:00 AM81 °FPassing clouds.2 mph94%29.80 "HgN/A
12:30 AM82 °FPassing clouds.2 mph89%29.83 "HgN/A
12:00 AM82 °FPassing clouds.3 mph89%29.83 "HgN/A
11:30 PM
Wed, May 6
82 °FPassing clouds.2 mph89%29.83 "HgN/A
11:00 PM82 °FPassing clouds.3 mph89%29.83 "HgN/A
10:30 PM82 °FPartly cloudy.5 mph89%29.83 "HgN/A
10:00 PM84 °FPassing clouds.3 mph84%29.86 "HgN/A
9:30 PM84 °FPassing clouds.1 mph79%29.83 "HgN/A
9:00 PM84 °FPassing clouds.2 mph79%29.83 "HgN/A
8:30 PM84 °FPassing clouds.3 mph84%29.83 "HgN/A
8:00 PM84 °FPassing clouds.3 mph84%29.80 "HgN/A
7:30 PM84 °FPassing clouds.5 mph84%29.80 "HgN/A
7:00 PM84 °FPassing clouds.6 mph84%29.80 "HgN/A
6:30 PM86 °FPassing clouds.6 mph75%29.77 "HgN/A
6:00 PM86 °FPartly sunny.8 mph75%29.77 "HgN/A
5:30 PM88 °FPartly sunny.8 mph70%29.77 "HgN/A
5:00 PM88 °FPartly sunny.8 mph70%29.74 "HgN/A
Weather by CustomWeather, © 2015

See weather overviewHow to use our weather pages